• în România
  • Lista ţărilor
  • Pe 7 zile
  • Temperatura apei
  • Hartă satelitară
  • Meteo pe hartă
  • Widget-uri
  • user-avatar
    Intrare

    Meteo pe oră la Zadar

    Astăzi, 21 Octombrie, Sâmbătă

    Timp Temperatura Precipitaţii Vânt Presiune Umiditate
    00:00 +16°C° 0 mm 1 m/s 764 mmHg 93%
    01:00 +15°C° 0 mm 1 m/s 764 mmHg 92%
    02:00 +15°C° 0 mm 1 m/s 763 mmHg 92%
    03:00 +15°C° 0 mm 1 m/s 763 mmHg 92%
    04:00 +15°C° 0 mm 1 m/s 763 mmHg 92%
    05:00 +15°C° 0 mm 1 m/s 763 mmHg 92%
    06:00 +15°C° 0 mm 1 m/s 763 mmHg 92%
    07:00 +15°C° 0 mm 1 m/s 763 mmHg 92%
    08:00 +18°C° 0 mm 1 m/s 763 mmHg 84%
    09:00 +20°C° 0 mm 1 m/s 763 mmHg 77%
    10:00 +22°C° 0 mm 1 m/s 763 mmHg 69%
    11:00 +22°C° 0 mm 1 m/s 763 mmHg 66%
    12:00 +23°C° 0 mm 1 m/s 763 mmHg 62%
    13:00 +23°C° 0 mm 2 m/s 763 mmHg 58%
    14:00 +23°C° 0 mm 2 m/s 762 mmHg 62%
    15:00 +22°C° 0 mm 1 m/s 762 mmHg 66%
    16:00 +22°C° 0 mm 1 m/s 762 mmHg 70%
    17:00 +20°C° 0 mm 1 m/s 762 mmHg 77%
    18:00 +19°C° 0 mm 1 m/s 762 mmHg 85%
    19:00 +18°C° 0 mm 1 m/s 762 mmHg 92%
    20:00 +18°C° 0 mm 1 m/s 762 mmHg 92%
    21:00 +16°C° 0 mm 1 m/s 762 mmHg 93%
    22:00 +16°C° 0 mm 1 m/s 762 mmHg 93%
    23:00 +16°C° 0 mm 1 m/s 762 mmHg 93%

    Mâine, 22 Octombrie, Duminică

    Timp Temperatura Precipitaţii Vânt Presiune Umiditate
    00:00 +15°C° 0 mm 1 m/s 762 mmHg 93%
    01:00 +15°C° 0 mm 1 m/s 762 mmHg 92%
    02:00 +15°C° 0 mm 1 m/s 761 mmHg 92%
    03:00 +15°C° 0 mm 1 m/s 761 mmHg 92%
    04:00 +15°C° 0 mm 2 m/s 761 mmHg 91%
    05:00 +16°C° 0 mm 2 m/s 761 mmHg 90%
    06:00 +16°C° 0 mm 2 m/s 760 mmHg 89%
    07:00 +16°C° 0 mm 2 m/s 760 mmHg 88%
    08:00 +17°C° 0 mm 3 m/s 760 mmHg 82%
    09:00 +19°C° 0 mm 3 m/s 760 mmHg 76%
    10:00 +21°C° 0 mm 4 m/s 760 mmHg 70%
    11:00 +21°C° 0,7 mm 4 m/s 759 mmHg 71%
    12:00 +21°C° 0,7 mm 5 m/s 758 mmHg 71%
    13:00 +21°C° 0,7 mm 5 m/s 758 mmHg 72%
    14:00 +20°C° 1 mm 6 m/s 757 mmHg 76%
    15:00 +20°C° 1 mm 6 m/s 756 mmHg 80%
    16:00 +19°C° 1 mm 6 m/s 756 mmHg 84%
    17:00 +19°C° 1,3 mm 6 m/s 756 mmHg 86%
    18:00 +17°C° 1,3 mm 5 m/s 756 mmHg 87%
    19:00 +17°C° 1,3 mm 5 m/s 756 mmHg 88%
    20:00 +17°C° 1,5 mm 4 m/s 756 mmHg 88%
    21:00 +17°C° 1,5 mm 4 m/s 756 mmHg 88%
    22:00 +16°C° 1,5 mm 3 m/s 756 mmHg 87%
    23:00 +14°C° 1 mm 5 m/s 755 mmHg 85%

    Poimâine, 23 Octombrie, Luni

    Timp Temperatura Precipitaţii Vânt Presiune Umiditate
    00:00 +12°C° 1 mm 7 m/s 755 mmHg 83%
    01:00 +11°C° 1 mm 9 m/s 755 mmHg 80%
    02:00 +11°C° 0,3 mm 9 m/s 755 mmHg 79%
    03:00 +11°C° 0,3 mm 10 m/s 755 mmHg 77%
    04:00 +11°C° 0,3 mm 11 m/s 755 mmHg 75%
    05:00 +9°C° 0,6 mm 11 m/s 755 mmHg 74%
    06:00 +9°C° 0,6 mm 12 m/s 756 mmHg 72%
    07:00 +9°C° 0,6 mm 12 m/s 756 mmHg 70%
    08:00 +10°C° 0,3 mm 12 m/s 757 mmHg 68%
    09:00 +10°C° 0,3 mm 12 m/s 757 mmHg 66%
    10:00 +11°C° 0,3 mm 11 m/s 758 mmHg 64%
    11:00 +12°C° 0 mm 11 m/s 758 mmHg 62%
    12:00 +12°C° 0 mm 10 m/s 758 mmHg 60%
    13:00 +13°C° 0 mm 10 m/s 758 mmHg 58%
    14:00 +13°C° 0,1 mm 9 m/s 758 mmHg 58%
    15:00 +13°C° 0,1 mm 8 m/s 758 mmHg 58%
    16:00 +12°C° 0,1 mm 8 m/s 758 mmHg 58%
    17:00 +12°C° 0,1 mm 7 m/s 758 mmHg 60%
    18:00 +11°C° 0,1 mm 7 m/s 759 mmHg 62%
    19:00 +11°C° 0,1 mm 6 m/s 759 mmHg 63%
    20:00 +11°C° 0 mm 7 m/s 759 mmHg 63%
    21:00 +11°C° 0 mm 7 m/s 760 mmHg 62%
    22:00 +11°C° 0 mm 7 m/s 760 mmHg 62%
    23:00 +11°C° 0 mm 7 m/s 760 mmHg 63%

    24 Octombrie, Marţi

    Timp Temperatura Precipitaţii Vânt Presiune Umiditate
    00:00 +10°C° 0 mm 8 m/s 760 mmHg 63%
    01:00 +10°C° 0 mm 8 m/s 760 mmHg 64%
    02:00 +10°C° 0 mm 9 m/s 760 mmHg 64%
    03:00 +10°C° 0 mm 9 m/s 760 mmHg 64%
    04:00 +9°C° 0 mm 10 m/s 760 mmHg 63%
    05:00 +9°C° 0 mm 10 m/s 760 mmHg 64%
    06:00 +9°C° 0 mm 10 m/s 761 mmHg 65%
    07:00 +9°C° 0 mm 11 m/s 761 mmHg 65%
    08:00 +11°C° 0 mm 11 m/s 761 mmHg 63%
    09:00 +12°C° 0 mm 11 m/s 761 mmHg 60%
    10:00 +13°C° 0 mm 12 m/s 761 mmHg 58%
    11:00 +13°C° 0 mm 12 m/s 761 mmHg 57%
    12:00 +14°C° 0 mm 11 m/s 761 mmHg 56%
    13:00 +14°C° 0 mm 11 m/s 761 mmHg 55%
    14:00 +14°C° 0 mm 11 m/s 761 mmHg 56%
    15:00 +14°C° 0 mm 10 m/s 761 mmHg 57%
    16:00 +14°C° 0 mm 10 m/s 762 mmHg 57%
    17:00 +13°C° 0 mm 10 m/s 762 mmHg 59%
    18:00 +12°C° 0 mm 10 m/s 762 mmHg 61%
    19:00 +12°C° 0 mm 9 m/s 763 mmHg 63%
    20:00 +11°C° 0 mm 9 m/s 763 mmHg 65%
    21:00 +11°C° 0 mm 9 m/s 764 mmHg 66%
    22:00 +11°C° 0 mm 8 m/s 764 mmHg 67%
    23:00 +10°C° 0 mm 8 m/s 765 mmHg 68%

    25 Octombrie, Miercuri

    Timp Temperatura Precipitaţii Vânt Presiune Umiditate
    00:00 +10°C° 0 mm 7 m/s 765 mmHg 70%
    01:00 +10°C° 0 mm 7 m/s 765 mmHg 71%
    02:00 +9°C° 0 mm 7 m/s 765 mmHg 71%
    03:00 +9°C° 0 mm 7 m/s 765 mmHg 72%
    04:00 +9°C° 0 mm 7 m/s 765 mmHg 72%
    05:00 +9°C° 0 mm 7 m/s 765 mmHg 72%
    06:00 +9°C° 0 mm 7 m/s 766 mmHg 72%
    07:00 +9°C° 0 mm 6 m/s 766 mmHg 73%
    08:00 +10°C° 0 mm 7 m/s 766 mmHg 67%
    09:00 +11°C° 0 mm 7 m/s 766 mmHg 61%
    10:00 +14°C° 0 mm 7 m/s 767 mmHg 55%
    11:00 +15°C° 0 mm 7 m/s 766 mmHg 54%
    12:00 +15°C° 0 mm 7 m/s 766 mmHg 52%
    13:00 +16°C° 0 mm 7 m/s 766 mmHg 50%
    14:00 +15°C° 0 mm 7 m/s 766 mmHg 53%
    15:00 +15°C° 0 mm 7 m/s 766 mmHg 55%
    16:00 +15°C° 0 mm 7 m/s 766 mmHg 58%
    17:00 +14°C° 0 mm 6 m/s 766 mmHg 63%
    18:00 +13°C° 0 mm 5 m/s 767 mmHg 67%
    19:00 +10°C° 0 mm 5 m/s 767 mmHg 72%
    20:00 +10°C° 0 mm 5 m/s 767 mmHg 73%
    21:00 +11°C° 0 mm 4 m/s 767 mmHg 73%
    22:00 +11°C° 0 mm 4 m/s 768 mmHg 74%
    23:00 +11°C° 0 mm 4 m/s 768 mmHg 74%

    26 Octombrie, Joi

    Timp Temperatura Precipitaţii Vânt Presiune Umiditate
    00:00 +10°C° 0 mm 4 m/s 768 mmHg 74%
    01:00 +10°C° 0 mm 4 m/s 768 mmHg 75%
    02:00 +10°C° 0 mm 4 m/s 768 mmHg 74%
    03:00 +10°C° 0 mm 4 m/s 768 mmHg 74%
    04:00 +10°C° 0 mm 4 m/s 767 mmHg 74%
    05:00 +10°C° 0 mm 4 m/s 768 mmHg 73%
    06:00 +10°C° 0 mm 4 m/s 768 mmHg 73%
    07:00 +10°C° 0 mm 4 m/s 768 mmHg 72%
    08:00 +12°C° 0 mm 4 m/s 768 mmHg 66%
    09:00 +15°C° 0 mm 4 m/s 768 mmHg 61%
    10:00 +18°C° 0 mm 4 m/s 768 mmHg 55%
    11:00 +19°C° 0 mm 3 m/s 768 mmHg 52%
    12:00 +20°C° 0 mm 3 m/s 768 mmHg 50%
    13:00 +21°C° 0 mm 3 m/s 767 mmHg 48%
    14:00 +21°C° 0 mm 3 m/s 767 mmHg 52%
    15:00 +20°C° 0 mm 3 m/s 767 mmHg 56%
    16:00 +20°C° 0 mm 3 m/s 767 mmHg 59%
    17:00 +18°C° 0 mm 3 m/s 767 mmHg 64%
    18:00 +17°C° 0 mm 3 m/s 767 mmHg 69%
    19:00 +14°C° 0 mm 3 m/s 767 mmHg 74%
    20:00 +14°C° 0 mm 3 m/s 768 mmHg 74%
    21:00 +13°C° 0 mm 3 m/s 768 mmHg 74%
    22:00 +13°C° 0 mm 3 m/s 768 mmHg 74%
    23:00 +13°C° 0 mm 3 m/s 768 mmHg 74%
    Arată mai mult